Snowfall_Accumulation
0.0 0.0 0.0 0.0 0.0 0.0 0.0 0.0 0.3 0.0 0.0 0.0 0.0 0.0 0.0 0.0 0.0 0.0 0.0 0.0 0.0 0.0 0.0 0.0 0.0 0.0 0.0 0.0 0.0 0.0 0.0 0.0 0.0 0.0 0.0 0.0 0.0 0.0 0.0 0.0 0.0 0.0 0.0 0.0
0.0 0.0 0.0 0.0 0.0 0.0 0.0 0.0 0.0 0.0 0.0 0.0 0.0 0.0 0.0 0.0 0.0 0.0 0.0 0.0 0.0 0.0 0.0 0.0 0.0 0.0 0.0 0.0 0.0 0.0 0.0 0.0 0.0 0.0 0.0 0.0 0.0 0.0 0.0 0.0 0.0 0.0 0.0 0.0
0.1 0.0 0.0 1.3 0.0 0.0 0.0 0.0 0.0 0.1 0.0 0.0 0.0 0.0 0.0 0.0 0.0 0.0 0.0 0.0 0.0 0.0 0.0 0.0 0.0 0.0 0.0 0.0 0.0 0.0 0.0 0.0 0.0 0.0 0.0 0.0 0.0 0.0 0.0 0.0 0.0 0.0 0.0 0.0
1.8 0.9 3.4 0.0 0.0 0.0 0.0 0.0 0.0 0.0 0.0 0.0 0.0 0.0 0.0 0.0 0.0 0.0 0.0 0.0 0.0 0.0 0.0 0.0 0.0 0.0 0.0 0.0 0.0 0.0 0.0 0.0 0.0 0.0 0.0 0.0 0.0 0.0 0.0 0.0 0.0 0.0 0.0 0.0
4.3 0.7 0.0 0.0 0.0 0.0 0.0 0.0 0.0 0.0 0.0 0.0 0.0 0.0 0.0 0.0 0.0 0.0 0.0 0.0 0.0 0.0 0.0 0.0 0.0 0.0 0.0 0.0 0.0 0.0 0.0 0.0 0.0 0.0 0.0 0.0 0.0 0.0 0.0 0.0 0.0 0.0 0.0 0.0
1.5 1.7 5.0 0.0 0.0 0.0 0.0 0.3 0.0 0.0 0.0 0.0 0.0 0.3 0.0 0.0 0.0 0.0 0.0 0.0 0.0 0.0 0.0 0.0 0.0 0.0 0.0 0.0 0.0 0.0 0.0 0.0 0.0 0.0 0.0 0.0 0.0 0.0 0.0 0.0 0.0 0.0 0.0 0.0
1.9 3.3 0.9 0.0 0.0 0.0 1.2 0.1 0.0 0.0 0.0 0.0 0.0 0.0 0.0 0.0 0.0 0.0 0.0 0.0 0.0 0.0 0.0 0.0 0.0 0.0 0.0 0.0 0.0 0.0 0.0 0.0 0.0 0.0 0.0 0.0 0.0 0.0 0.0 0.0 0.0 0.1 0.2 0.1
1.8 3.1 4.0 0.0 0.0 0.2 0.2 0.0 0.0 0.0 0.0 0.0 0.0 0.0 0.0 0.0 0.0 0.0 0.0 0.0 0.0 0.0 0.0 0.0 0.0 0.0 0.0 0.0 0.0 0.0 0.0 0.0 0.0 0.0 0.0 0.0 0.0 0.0 0.0 0.0 0.0 0.1 2.9 0.7
0.1 0.7 0.0 0.0 0.0 0.0 0.0 0.0 0.0 0.0 0.0 0.0 0.0 0.0 0.0 0.0 0.0 0.0 0.0 0.0 0.0 0.0 0.0 0.0 0.0 0.0 0.0 0.0 0.0 0.0 0.0 0.0 0.0 0.0 0.0 0.0 0.0 0.0 0.0 0.0 0.5 0.3 0.9 1.8
0.1 0.0 0.0 0.0 0.0 0.0 0.0 0.0 0.0 0.0 0.0 0.0 0.0 0.0 0.0 0.0 0.0 0.0 0.0 0.0 0.0 0.0 0.0 0.0 0.0 0.0 0.0 0.0 0.0 0.0 0.0 0.0 0.0 0.0 0.0 0.0 0.0 0.0 0.0 0.6 1.0 0.9 1.3 1.1
0.0 0.0 0.0 0.0 0.0 0.0 0.0 0.0 0.0 0.0 0.0 0.0 0.0 0.0 0.0 0.0 0.0 0.0 0.0 0.0 0.0 0.0 0.0 0.0 0.0 0.0 0.0 0.0 0.0 0.0 0.0 0.0 0.0 0.1 0.0 0.0 0.0 0.0 0.4 0.2 0.8 1.2 1.1 1.5
0.4 0.0 0.0 0.0 0.0 0.0 0.0 0.0 0.0 0.0 0.0 0.0 0.0 0.0 0.0 0.0 0.0 0.0 0.0 0.0 0.0 0.0 0.0 0.0 0.0 0.0 0.0 0.0 0.0 0.0 0.0 0.1 0.5 0.6 0.5 0.0 0.0 0.0 nan nan nan nan nan 3.1
0.0 0.0 0.0 0.0 0.0 0.0 0.0 0.0 0.0 0.0 0.0 0.0 0.0 0.0 0.0 0.0 0.0 nan 0.0 0.0 0.0 0.0 0.0 0.0 0.0 0.0 0.0 0.0 0.1 0.1 0.1 0.1 0.6 0.6 0.6 0.7 0.8 0.9 1.4 0.8 nan nan nan nan
0.0 0.0 0.0 0.0 0.0 0.0 0.0 0.0 0.0 0.0 0.0 0.0 0.0 0.0 0.0 0.1 0.0 0.0 0.0 0.0 0.0 0.0 0.0 0.0 0.0 0.0 0.0 0.0 0.1 0.2 0.1 0.0 0.8 0.7 0.8 1.1 1.7 1.7 1.9 2.8 4.6 3.8 nan nan
0.0 0.0 0.0 0.0 0.0 0.0 0.0 0.0 0.0 0.0 0.0 0.0 0.0 0.1 0.1 0.1 0.1 0.0 0.0 0.0 0.0 0.0 0.0 0.0 0.0 0.0 0.0 0.0 0.0 0.0 0.2 0.6 1.4 2.3 2.4 2.3 2.7 2.8 2.4 2.8 3.1 2.8 2.3 1.1
0.0 0.0 0.0 0.0 0.0 0.0 0.0 0.0 0.0 0.1 0.0 0.0 0.0 0.0 0.0 0.0 0.0 0.0 0.0 0.0 0.3 0.3 0.0 3.5 0.7 0.0 0.0 0.0 0.0 0.0 0.2 0.0 0.8 1.7 2.2 2.3 2.2 2.7 2.4 2.9 2.9 3.6 3.3 3.3
0.0 0.0 0.0 0.0 0.0 0.0 0.0 0.0 0.0 0.0 0.0 0.0 0.1 0.1 0.0 0.2 0.2 0.1 0.1 0.2 1.7 2.2 1.3 0.7 0.3 0.0 0.0 0.0 0.0 0.3 0.4 0.7 0.0 1.3 1.6 1.9 2.7 3.0 2.9 3.7 4.2 4.0 6.8 11.2
0.0 0.0 0.0 0.0 0.0 0.1 0.0 0.0 0.0 0.0 0.0 0.0 0.7 3.3 4.2 3.7 0.4 0.4 0.7 0.9 2.1 2.1 0.4 0.2 0.2 0.0 0.1 0.0 0.1 0.4 1.2 1.4 1.9 2.6 2.2 3.7 2.7 2.7 4.0 3.7 3.7 4.5 5.6 5.1
0.0 0.0 0.0 0.0 0.0 0.0 0.0 0.0 0.1 0.1 2.0 1.6 3.7 2.8 2.5 2.7 0.3 0.2 0.5 4.5 5.3 1.0 0.2 0.2 0.0 0.1 0.1 0.1 0.2 1.1 2.1 3.9 2.3 1.6 2.2 5.7 6.9 3.3 5.8 7.2 5.9 8.0 4.8 5.5
0.0 0.0 0.0 0.0 0.0 0.1 0.2 0.1 0.8 0.1 0.1 0.5 3.8 4.9 1.8 3.6 3.8 4.6 2.1 1.4 0.4 0.8 0.1 0.1 0.1 0.2 0.2 0.2 1.5 1.1 2.6 5.4 3.1 5.9 7.5 4.0 11.2 16.0 10.3 6.8 6.1 8.8 16.5 12.5
0.0 0.0 0.1 0.2 0.2 0.8 2.0 2.6 1.9 0.2 0.2 3.7 5.6 6.4 5.8 2.7 3.8 5.8 3.2 1.1 0.1 0.5 0.1 0.1 0.4 0.7 0.3 0.4 0.6 3.6 6.7 9.6 9.7 5.9 6.0 13.1 18.1 13.9 15.0 16.5 15.1 17.8 21.3 16.4
0.0 0.1 1.5 0.9 0.3 0.2 0.4 0.2 0.2 2.3 2.3 5.4 9.9 11.9 7.6 1.5 3.0 2.8 4.5 1.4 0.7 2.0 1.1 1.3 0.8 3.1 2.2 5.0 2.1 8.6 4.9 5.2 6.5 6.6 7.2 11.9 14.0 21.6 22.1 19.3 18.4 21.0 20.7 21.0
0.0 0.0 0.3 1.0 1.2 0.1 0.2 0.6 3.6 3.7 7.0 6.1 7.3 3.9 2.7 1.4 1.6 3.7 3.3 0.1 1.1 3.4 1.4 3.3 4.6 5.3 5.7 9.5 9.3 10.9 10.4 10.2 10.1 9.1 10.0 15.8 15.8 26.9 15.7 15.4 18.0 18.9 24.6 16.5
0.0 0.1 0.1 0.1 0.4 0.4 0.7 0.1 0.1 0.3 5.6 2.3 3.6 6.3 2.1 5.3 7.3 1.3 1.4 5.5 5.6 14.6 11.7 6.2 8.0 5.9 6.4 11.6 12.0 14.0 13.2 14.7 15.1 17.0 8.3 8.6 24.3 21.0 18.4 27.5 17.2 20.1 22.4 18.6
0.2 0.1 0.1 1.0 0.3 0.6 0.1 0.1 0.2 0.3 0.4 0.4 0.4 0.3 0.8 1.4 7.5 3.2 5.8 5.5 6.4 5.1 7.4 6.2 6.1 6.8 14.8 15.9 16.0 16.5 16.8 14.8 18.8 21.2 15.0 20.6 18.7 28.6 27.0 22.7 26.2 26.9 27.9 24.0
0.1 0.4 0.3 0.1 0.3 0.3 0.5 0.6 1.2 1.2 1.5 5.0 2.6 10.5 7.4 4.7 4.0 3.9 5.7 6.3 4.3 6.1 5.1 12.4 17.8 18.0 17.4 13.6 15.6 16.1 13.0 9.5 14.9 15.8 17.8 17.0 16.1 14.1 18.9 17.4 23.8 29.2 36.2 39.3
0.5 0.2 0.7 0.6 0.5 0.8 0.9 1.0 3.0 3.6 4.5 8.7 7.2 7.3 4.5 7.7 10.1 6.6 8.1 12.1 12.6 12.8 12.9 16.3 14.5 10.6 9.5 15.5 13.7 12.4 12.3 13.1 10.8 11.1 21.9 25.5 24.2 32.8 29.1 28.6 33.2 35.6 32.0 28.5
Water_Equivalent
0.00 0.00 0.00 0.00 0.00 0.00 0.00 0.00 0.06 0.00 0.00 0.00 0.00 0.00 0.00 0.00 0.00 0.00 0.00 0.00 0.00 0.00 0.00 0.00 0.00 0.00 0.00 0.00 0.00 0.00 0.00 0.00 0.00 0.00 0.00 0.00 0.00 0.00 0.00 0.00 0.00 0.00 0.00 0.00
0.00 0.00 0.00 0.00 0.00 0.00 0.00 0.00 0.00 0.00 0.00 0.00 0.00 0.00 0.00 0.00 0.00 0.00 0.00 0.00 0.00 0.00 0.00 0.00 0.00 0.00 0.00 0.00 0.00 0.00 0.00 0.00 0.00 0.00 0.00 0.00 0.00 0.00 0.00 0.00 0.00 0.00 0.00 0.00
0.02 0.00 0.01 0.28 0.00 0.00 0.00 0.00 0.00 0.03 0.00 0.00 0.00 0.00 0.00 0.00 0.00 0.00 0.00 0.00 0.00 0.00 0.00 0.00 0.00 0.00 0.00 0.00 0.00 0.00 0.00 0.00 0.00 0.00 0.00 0.00 0.00 0.00 0.00 0.00 0.00 0.00 0.00 0.00
0.42 0.19 0.71 0.01 0.00 0.00 0.00 0.00 0.00 0.00 0.00 0.00 0.00 0.00 0.00 0.00 0.00 0.00 0.00 0.00 0.00 0.00 0.00 0.00 0.00 0.00 0.00 0.00 0.00 0.00 0.00 0.00 0.00 0.00 0.00 0.00 0.00 0.00 0.00 0.00 0.00 0.00 0.00 0.00
0.98 0.15 0.00 0.00 0.00 0.00 0.00 0.00 0.00 0.00 0.00 0.00 0.00 0.00 0.00 0.00 0.00 0.00 0.00 0.00 0.00 0.00 0.00 0.00 0.00 0.00 0.00 0.00 0.00 0.00 0.00 0.00 0.00 0.00 0.00 0.00 0.00 0.00 0.00 0.00 0.00 0.00 0.00 0.00
0.34 0.36 0.95 0.00 0.00 0.00 0.00 0.07 0.00 0.00 0.00 0.00 0.00 0.08 0.00 0.00 0.00 0.00 0.00 0.00 0.00 0.00 0.00 0.00 0.00 0.00 0.00 0.00 0.00 0.00 0.00 0.00 0.00 0.00 0.00 0.00 0.00 0.00 0.00 0.00 0.00 0.00 0.00 0.00
0.42 0.72 0.19 0.00 0.00 0.00 0.25 0.01 0.00 0.00 0.00 0.00 0.00 0.00 0.00 0.00 0.00 0.00 0.00 0.00 0.00 0.00 0.00 0.00 0.00 0.00 0.00 0.00 0.00 0.00 0.00 0.00 0.00 0.00 0.00 0.00 0.00 0.00 0.00 0.00 0.00 0.02 0.03 0.01
0.41 0.69 0.82 0.00 0.00 0.04 0.04 0.00 0.00 0.00 0.00 0.00 0.00 0.00 0.00 0.00 0.00 0.00 0.00 0.00 0.00 0.00 0.00 0.00 0.00 0.00 0.00 0.00 0.00 0.00 0.00 0.00 0.00 0.00 0.00 0.00 0.00 0.00 0.00 0.00 0.00 0.03 0.55 0.15
0.02 0.15 0.00 0.00 0.00 0.00 0.00 0.00 0.00 0.00 0.00 0.00 0.00 0.00 0.00 0.00 0.00 0.00 0.00 0.00 0.00 0.00 0.00 0.00 0.00 0.00 0.00 0.00 0.00 0.00 0.00 0.00 0.00 0.00 0.00 0.00 0.00 0.00 0.00 0.00 0.10 0.06 0.18 0.34
0.02 0.00 0.00 0.00 0.00 0.00 0.00 0.00 0.00 0.00 0.00 0.00 0.00 0.00 0.00 0.00 0.00 0.00 0.00 0.00 0.00 0.00 0.00 0.00 0.00 0.00 0.00 0.00 0.00 0.00 0.00 0.00 0.00 0.00 0.00 0.00 0.00 0.00 0.00 0.12 0.20 0.18 0.24 0.21
0.00 0.00 0.00 0.00 0.00 0.00 0.00 0.00 0.00 0.00 0.00 0.00 0.00 0.00 0.00 0.00 0.00 0.00 0.00 0.00 0.00 0.00 0.00 0.00 0.00 0.00 0.00 0.00 0.00 0.00 0.00 0.00 0.00 0.03 0.00 0.00 0.00 0.00 0.10 0.03 0.17 0.24 0.22 0.27
0.11 0.00 0.00 0.00 0.00 0.00 0.00 0.00 0.00 0.00 0.00 0.00 0.00 0.00 0.00 0.00 0.00 0.00 0.00 0.00 0.00 0.00 0.00 0.00 0.00 0.00 0.00 0.00 0.00 0.00 0.00 0.02 0.10 0.13 0.11 0.00 0.00 0.00 nan nan nan nan nan 0.54
0.00 0.00 0.00 0.00 0.00 0.00 0.00 0.00 0.00 0.00 0.00 0.00 0.00 0.00 0.00 0.00 0.00 nan 0.00 0.00 0.00 0.00 0.00 0.00 0.00 0.00 0.00 0.00 0.01 0.03 0.01 0.01 0.13 0.13 0.14 0.15 0.17 0.19 0.25 0.18 nan nan nan nan
0.00 0.00 0.00 0.00 0.00 0.00 0.00 0.00 0.00 0.00 0.00 0.00 0.00 0.00 0.00 0.02 0.01 0.00 0.00 0.00 0.00 0.00 0.00 0.00 0.00 0.00 0.00 0.00 0.01 0.04 0.02 0.00 0.17 0.16 0.17 0.22 0.33 0.32 0.34 0.47 0.74 0.63 nan nan
0.00 0.00 0.00 0.00 0.00 0.00 0.00 0.00 0.00 0.00 0.00 0.00 0.00 0.01 0.01 0.03 0.01 0.00 0.00 0.00 0.00 0.00 0.00 0.00 0.00 0.00 0.00 0.00 0.00 0.00 0.05 0.14 0.29 0.47 0.49 0.46 0.53 0.52 0.43 0.49 0.51 0.46 0.39 0.23
0.00 0.00 0.00 0.00 0.00 0.00 0.00 0.00 0.00 0.02 0.01 0.01 0.01 0.00 0.00 0.00 0.00 0.00 0.00 0.00 0.07 0.07 0.01 0.64 0.13 0.01 0.00 0.00 0.00 0.00 0.05 0.00 0.16 0.36 0.45 0.47 0.43 0.50 0.42 0.49 0.48 0.57 0.52 0.50
0.00 0.01 0.00 0.00 0.00 0.00 0.00 0.00 0.00 0.00 0.00 0.00 0.01 0.01 0.00 0.03 0.03 0.02 0.02 0.05 0.32 0.41 0.25 0.14 0.07 0.00 0.00 0.00 0.00 0.08 0.10 0.16 0.00 0.27 0.32 0.38 0.51 0.55 0.49 0.61 0.67 0.62 1.04 1.67
0.00 0.00 0.00 0.00 0.00 0.02 0.01 0.00 0.01 0.01 0.01 0.01 0.14 0.62 0.76 0.67 0.08 0.08 0.14 0.17 0.38 0.38 0.07 0.04 0.04 0.01 0.02 0.00 0.01 0.09 0.24 0.28 0.40 0.52 0.43 0.71 0.52 0.49 0.66 0.60 0.58 0.71 0.88 0.83
0.00 0.00 0.00 0.00 0.00 0.00 0.00 0.01 0.02 0.02 0.41 0.32 0.71 0.53 0.48 0.52 0.06 0.05 0.09 0.81 0.95 0.19 0.03 0.04 0.00 0.02 0.01 0.01 0.03 0.23 0.44 0.81 0.47 0.31 0.42 1.78 1.18 0.59 0.88 1.13 0.92 1.26 0.75 0.82
0.00 0.00 0.00 0.00 0.00 0.02 0.05 0.03 0.18 0.03 0.02 0.09 0.70 0.90 0.35 0.71 0.73 0.86 0.40 0.26 0.08 0.18 0.03 0.02 0.03 0.03 0.04 0.05 0.47 0.22 0.54 1.10 0.62 1.16 1.41 0.73 1.69 2.35 1.55 2.14 0.98 1.40 2.59 1.91
0.00 0.00 0.03 0.04 0.03 0.15 0.40 0.52 0.34 0.04 0.04 0.65 1.03 1.17 1.02 0.53 0.74 1.12 0.62 0.22 0.02 0.11 0.03 0.02 0.10 0.15 0.08 0.09 0.14 0.77 1.35 1.94 1.93 1.14 1.13 2.29 2.95 2.10 2.28 2.66 2.43 2.89 3.29 2.54
0.00 0.03 0.31 0.18 0.06 0.03 0.08 0.04 0.04 0.43 0.42 0.92 1.59 1.86 1.35 0.29 0.62 0.57 0.87 0.29 0.16 0.65 0.25 0.28 0.18 1.00 0.69 1.64 0.44 1.80 0.97 1.07 1.29 1.27 1.37 2.18 2.33 3.27 3.30 2.90 2.79 3.28 3.33 3.43
0.00 0.01 0.06 0.20 0.24 0.02 0.05 0.13 0.70 0.73 1.19 1.07 1.29 0.76 0.55 0.30 0.33 0.67 0.61 0.03 0.23 1.05 0.30 0.74 1.47 1.76 1.89 2.18 2.08 2.28 2.15 2.03 1.97 1.74 1.89 2.92 2.71 4.17 2.27 2.25 2.65 2.76 3.81 2.56
0.01 0.02 0.01 0.03 0.09 0.08 0.14 0.01 0.02 0.05 0.98 0.45 0.71 1.16 0.42 1.09 1.62 0.29 0.31 1.81 1.85 3.82 2.84 1.53 2.19 1.95 2.12 2.56 2.42 2.73 2.56 2.76 2.69 2.94 1.46 2.64 4.07 2.90 2.29 3.34 2.02 2.77 2.97 2.56
0.04 0.02 0.03 0.19 0.06 0.12 0.01 0.01 0.04 0.05 0.07 0.09 0.08 0.07 0.15 0.32 1.47 0.72 1.30 1.27 2.02 1.34 1.71 1.97 2.02 2.26 3.16 3.24 2.96 2.89 2.86 2.45 2.79 3.17 2.20 3.30 3.00 4.29 3.71 2.73 3.11 3.37 3.33 3.02
0.01 0.09 0.07 0.01 0.06 0.08 0.10 0.13 0.24 0.26 0.31 0.98 0.55 2.13 1.55 0.96 0.85 0.84 1.19 1.76 0.93 1.87 1.12 2.74 3.63 3.60 3.37 2.36 2.66 2.69 2.02 1.47 2.12 2.05 2.34 2.30 2.27 1.85 2.25 2.07 2.86 3.67 4.59 5.09
0.12 0.04 0.16 0.13 0.11 0.17 0.19 0.21 0.59 0.68 1.05 1.67 1.37 1.44 0.88 1.52 1.97 1.56 2.31 2.41 2.44 2.59 2.63 3.30 2.86 2.69 1.69 2.78 2.31 1.95 1.81 1.93 2.76 1.46 2.67 3.11 2.90 4.04 3.54 3.62 4.17 4.65 3.91 3.33
SL_Ratio
nan nan nan nan nan nan nan nan 4.5 nan nan nan nan nan nan nan nan nan nan nan nan nan nan nan nan nan nan nan nan nan nan nan nan nan nan nan nan nan nan nan nan nan nan nan
nan nan nan nan nan nan nan nan nan nan nan nan nan nan nan nan nan nan nan nan nan nan nan nan nan nan nan nan nan nan nan nan nan nan nan nan nan nan nan nan nan nan nan nan
4.4 nan 4.5 4.7 nan nan nan nan nan 4.0 nan nan nan nan nan nan nan nan nan nan nan nan nan nan nan nan nan nan nan nan nan nan nan nan nan nan nan nan nan nan nan nan nan nan
4.3 4.5 4.9 4.4 nan nan nan nan nan nan nan nan nan nan nan nan nan nan nan nan nan nan nan nan nan nan nan nan nan nan nan nan nan nan nan nan nan nan nan nan nan nan nan nan
4.5 4.5 nan nan nan nan nan nan nan nan nan nan nan nan nan nan nan nan nan nan nan nan nan nan nan nan nan nan nan nan nan nan nan nan nan nan nan nan nan nan nan nan nan nan
4.5 4.7 5.2 nan nan nan nan 4.3 nan nan nan nan nan 3.5 nan nan nan nan nan nan nan nan nan nan nan nan nan nan nan nan nan nan nan nan nan nan nan nan nan nan nan nan nan nan
4.4 4.5 4.5 nan nan nan 4.6 4.5 nan nan nan nan nan nan nan nan nan nan nan nan nan nan nan nan nan nan nan nan nan nan nan nan nan nan nan nan nan nan nan nan nan 4.9 4.9 5.0
4.3 4.5 4.8 nan nan 4.3 3.8 nan nan nan nan nan nan nan nan nan nan nan nan nan nan nan nan nan nan nan nan nan nan nan nan nan nan nan nan nan nan nan nan nan 5.3 5.0 5.2 4.9
4.2 4.4 nan nan nan nan nan nan nan nan nan nan nan nan nan nan nan nan nan nan nan nan nan nan nan nan nan nan nan nan nan nan nan nan nan nan nan nan nan nan 4.8 5.2 4.9 5.2
3.6 nan nan nan nan nan nan nan nan nan nan nan nan nan nan nan nan nan nan nan nan nan nan nan nan nan nan nan nan nan nan nan nan nan nan nan nan nan nan 4.7 5.1 5.0 5.2 5.3
nan nan nan nan nan nan nan nan nan nan nan nan nan nan nan nan nan nan nan nan nan nan 0.0 nan nan nan nan nan nan nan nan nan nan 4.6 nan nan nan nan 4.6 4.6 4.9 5.0 5.0 5.4
3.3 nan nan nan nan nan nan nan nan nan nan nan nan nan nan nan nan nan nan nan nan nan nan nan nan nan nan nan nan nan nan 4.4 4.6 4.7 4.7 nan nan nan nan nan nan nan nan 5.7
nan nan nan nan nan nan nan nan nan nan nan nan nan nan nan nan nan nan nan nan nan nan nan nan nan nan nan 4.3 4.6 4.8 4.8 4.8 4.6 4.8 4.7 4.8 4.8 4.9 5.5 4.7 nan nan nan nan
nan nan nan nan nan nan nan nan nan nan nan nan nan nan nan 4.0 4.1 5.0 3.3 nan nan nan nan 10.0 nan nan nan nan 4.2 4.9 4.7 nan 4.7 4.7 4.8 4.8 5.1 5.3 5.7 6.0 6.3 6.1 nan nan
nan nan nan nan nan nan nan nan nan nan nan 5.5 5.0 5.0 4.9 5.2 5.0 10.0 nan nan nan nan nan nan nan nan nan 5.0 4.2 4.3 4.3 4.6 4.8 4.8 4.9 5.0 5.1 5.3 5.5 5.8 6.0 6.1 5.8 4.6
nan nan nan nan nan nan nan nan nan 3.9 4.8 5.0 4.7 5.0 nan nan nan nan nan nan 4.6 4.6 4.4 5.5 5.6 4.3 4.0 nan nan 5.0 4.2 4.0 4.8 4.8 4.9 4.9 5.0 5.5 5.9 6.0 6.1 6.3 6.4 6.6
nan 3.3 nan nan nan nan nan nan nan nan nan 10.0 4.8 4.7 4.0 4.9 5.0 4.9 4.6 5.1 5.5 5.4 5.2 5.0 4.8 10.0 4.0 nan 6.7 4.3 4.3 4.7 nan 4.8 4.9 5.0 5.2 5.6 6.0 6.1 6.2 6.4 6.5 6.7
nan nan nan nan nan 4.1 3.7 3.3 4.4 4.1 4.4 4.4 5.1 5.3 5.5 5.4 5.2 5.2 5.1 5.2 5.5 5.5 4.9 4.8 5.0 4.5 4.8 nan 5.2 4.7 4.9 4.9 4.8 5.0 5.0 5.2 5.3 5.5 6.0 6.2 6.3 6.3 6.3 6.2
nan nan nan nan nan nan nan 4.4 4.3 4.3 5.0 5.2 5.2 5.3 5.2 5.2 5.1 5.1 5.1 5.6 5.6 5.2 4.7 5.1 nan 4.9 4.4 4.8 4.8 4.8 4.8 4.9 5.0 5.0 5.1 3.2 5.8 5.6 6.6 6.4 6.4 6.3 6.4 6.7
nan nan nan nan nan 4.7 4.8 4.7 4.7 4.8 4.6 5.2 5.5 5.4 5.2 5.0 5.3 5.3 5.3 5.3 4.9 4.5 4.6 4.5 4.6 5.0 5.2 3.5 3.2 4.9 4.8 4.9 5.1 5.1 5.3 5.5 6.6 6.8 6.7 3.2 6.2 6.3 6.4 6.5
nan 4.7 4.7 4.7 4.9 5.0 4.9 5.0 5.4 4.9 5.0 5.6 5.5 5.5 5.7 5.1 5.1 5.2 5.2 5.0 4.7 4.9 4.6 3.2 4.4 4.6 4.5 4.5 4.0 4.7 4.9 4.9 5.0 5.2 5.3 5.7 6.1 6.6 6.6 6.2 6.2 6.2 6.5 6.4
nan 4.6 5.1 5.0 4.9 4.7 4.8 4.7 4.8 5.3 5.4 5.9 6.2 6.4 5.7 5.1 4.9 4.9 5.2 4.9 4.4 3.0 4.3 4.5 4.5 3.1 3.2 3.1 4.8 4.8 5.0 4.9 5.0 5.2 5.2 5.5 6.0 6.6 6.7 6.7 6.6 6.4 6.2 6.1
4.4 4.6 4.9 5.2 5.1 4.4 4.6 4.8 5.1 5.1 5.9 5.7 5.6 5.2 5.0 4.7 4.8 5.5 5.3 4.6 4.6 3.3 4.6 4.4 3.1 3.0 3.0 4.4 4.5 4.8 4.8 5.0 5.2 5.2 5.3 5.4 5.8 6.5 6.9 6.9 6.8 6.9 6.5 6.5
4.3 4.7 4.7 4.8 5.0 5.0 5.1 4.3 4.8 4.9 5.7 5.1 5.0 5.4 5.0 4.9 4.5 4.6 4.5 3.0 3.0 3.8 4.1 4.1 3.7 3.0 3.0 4.5 5.0 5.1 5.1 5.3 5.6 5.8 5.7 3.2 6.0 7.2 8.0 8.2 8.5 7.3 7.5 7.3
4.8 4.7 4.8 5.2 5.1 4.6 4.7 4.8 4.9 4.8 4.9 4.7 4.9 4.8 5.1 4.5 5.1 4.5 4.5 4.3 3.2 3.8 4.3 3.2 3.0 3.0 4.7 4.9 5.4 5.7 5.9 6.1 6.7 6.7 6.8 6.2 6.2 6.7 7.3 8.3 8.4 8.0 8.4 7.9
4.5 4.4 4.6 4.6 4.6 4.3 4.6 4.8 4.8 4.8 5.0 5.1 4.7 4.9 4.7 4.9 4.7 4.7 4.8 3.6 4.7 3.3 4.6 4.5 4.9 5.0 5.2 5.8 5.9 6.0 6.4 6.5 7.0 7.7 7.6 7.4 7.1 7.6 8.4 8.4 8.3 8.0 7.9 7.7
4.6 4.5 4.8 4.8 4.6 4.7 4.9 4.9 5.1 5.3 4.2 5.2 5.3 5.0 5.1 5.1 5.1 4.2 3.5 5.0 5.2 4.9 4.9 4.9 5.1 3.9 5.6 5.6 6.0 6.4 6.8 6.8 3.9 7.6 8.2 8.2 8.3 8.1 8.2 7.9 8.0 7.7 8.2 8.6